Showing default

ZACUBE, 39417

Orbit data source: Space-Track

ZACUBE, 39417 is a payload satellite owned by CPUT (ZA) in SSO that was launched on Thu, 21 Nov 2013 UTC via a DNEPR launch vehicle from the Orenburg, Russia (OREN). Payload-class satellites include a variety of spacecraft equipped with specific instruments for various scientific and technological missions. These include communications satellites like Starlink; space stations such as the ISS; scientific satellites like the Hubble; Earth observation satellites from companies like Planet Labs, Umbra, and HawkEye 360; GPS; miniature CubeSats for education and research; and military/defense satellites.

Loading next visibility...
Identifier
39417, 2013-066B
Orbit
SSO
Country
Flag of UnknownUnknown / SAFR
Related business
Manufacturer
CPUT
Mission
Operational Amateur Technology
Bus & Motor
CUBESAT 1U, Unknown motor
Mass
1.2 kg wet, 1.2 kg dry
Launch date (UTC)
2013-11-21 (12 years ago)
Launch vehicle
DNEPR
Launch site
Orenburg, Russia (OREN)
Object type
Payload
Rocket body
Debris
Shape & HBR
Box, 0.1 m
Radar Cross Section
0.015 m², Small (<0.1 m²)

Expand to show TLE details & history
Last TLE update: 15 hours ago

TLE from 15 hours ago
0 ZACUBE
1 39417U 13066B   25300.32332198  .00006713  00000-0  55871-3 0  9997
2 39417  97.7986 256.8453 0041411 307.2361  52.5086 14.98337397645823
Epoch: 2025-10-27T07:45Z
TLE epoch observation values (Epoch: 2025-10-27T07:45:35.019Z)
Latitude
Longitude
104.52257°
Altitude
557.637 km
Speed
7.592 km/s
True Right ascension
17h 07m 22s
True Declination
0° 00' 00"
Sunlit
Object was in daylight at epoch
Visualization orbit readout
Latitude
Unknown
Longitude
Unknown
Altitude
Unknown
Speed
Unknown
Apparent Right ascension
Unknown
Apparent Declination
Unknown
Sunlit
N/A
Visualization observer readout
Local Sidereal Time
18:25:27
Azimuth
Unknown
Elevation
Unknown
Doppler factor
Unknown
Orbital elements
Apogee altitude
597.814 km
Perigee altitude
540.276 km
Semi-major axis
6,947.182 km
Eccentricity
0.00414
Inclination
97.7986°
RAAN
256.8453°
Arg. of periapsis
307.2361°
True anomaly
52.8863°
Mean anomaly
52.5086°
Eccentric anomaly
52.69733°
Mean motion
3.74826 °/min
Orbital period
96.04 mins
BSTAR
0.00055871
Loading maneuver chart data...
Computing Atmospheric mass density...
Loading historical data...
Loading historical data...
Loading historical data...
Loading historical data...
Loading historical data...
Loading historical data...
Loading historical data...

Documentation

Showing up to 5 results
|